{"data":{"norad_id":56396,"intl_designator":"2023-061Y","name":"STARLINK-6302","alt_names":[],"object_type":"PAYLOAD","status":"ACTIVE","operator":null,"country":"US","launch_date":"2023-05-04","launch_site_code":"AFETR","launch_vehicle":null,"mission":null,"orbit_class":"UNKNOWN","rcs_meters":null,"size_class":null,"mass_kg":null,"dimensions":null,"purposes":["comms"],"wikipedia_slug":null,"has_3d_model":false,"image_url":null,"decayed_at":null,"tle_current":{"epoch":"2026-09-20T10:56:19.653792Z","epoch_age_seconds":115759,"freshness":"FRESH","line1":"1 56396U 23061Y   26263.45578303  .00000231  00000+0  17921-4 0  9994","line2":"2 56396  43.0035 166.9291 0001161 269.8437  90.2282 15.27576089181797","mean_motion":15.27576089,"eccentricity":0.0001161,"inclination_deg":43.0035,"raan_deg":166.9291,"arg_perigee_deg":269.8437,"mean_anomaly_deg":90.2282,"bstar":1.7921e-5,"rev_number":18179,"period_min":94.266990061534,"perigee_km":482.26422194022,"apogee_km":483.85739207101,"semimajor_km":6861.1978070056,"source":"CELESTRAK","updated_at":"2026-09-21T09:00:33.434430Z"}}}